Temp
10 10 11 11 12 12 13 13 14 14 13 12 12 13 12 14 14 12 13 12 12 13 12 11 13 13 13 14 14 14 14 14 13 13 13 13 13 13 14 13 14 14 14
10 10 11 12 13 12 13 13 13 14 12 12 12 11 11 12 12 12 13 12 12 12 13 13 14 13 13 13 14 14 14 14 13 13 12 13 13 13 13 14 13 14 14
9 9 11 11 12 13 13 13 13 13 12 12 12 11 11 11 11 11 13 12 12 12 13 12 13 13 13 13 14 14 13 13 13 13 13 13 13 13 13 13 13 13 13
9 10 11 11 12 12 12 11 12 12 12 11 12 11 11 12 11 11 12 12 12 12 12 12 13 13 13 13 14 13 13 13 13 13 12 13 13 13 13 13 13 12 12
10 11 11 11 12 11 10 10 11 11 11 11 11 10 11 11 11 12 12 12 12 12 12 12 13 13 13 13 13 13 13 13 13 13 13 13 13 13 13 13 13 12 11
11 11 10 10 10 10 9 9 10 10 10 10 10 11 11 11 11 11 11 11 11 11 11 12 12 13 13 13 13 12 13 13 13 13 12 12 12 12 13 12 12 12 11
9 9 9 9 9 9 9 9 9 9 10 10 10 10 11 11 11 11 11 11 11 11 11 11 11 12 13 13 13 13 13 13 13 12 12 12 11 11 12 12 12 11 11
7 7 7 8 9 9 7 9 9 10 10 10 10 10 10 10 10 10 10 10 10 10 11 11 11 11 11 12 11 11 12 12 12 11 11 12 11 11 12 12 12 10 10
5 5 6 7 7 7 6 8 10 10 10 10 10 10 10 10 10 10 10 10 10 10 10 10 11 11 11 11 11 11 11 11 12 11 11 11 12 11 11 11 11 10 9
5 5 5 5 6 6 7 7 8 8 8 9 10 10 10 10 10 10 10 10 10 10 11 11 11 11 11 11 10 11 11 10 11 11 11 10 10 11 10 10 10 10 10
4 6 6 6 6 6 6 7 8 8 8 8 8 9 9 9 10 10 9 9 10 10 10 11 11 11 11 11 11 10 10 10 10 10 10 11 10 10 10 10 10 10 10
5 6 6 7 7 7 7 7 8 8 8 8 8 9 9 10 9 9 9 9 9 10 10 10 10 10 10 11 11 11 10 10 10 10 11 10 10 10 9 10 10 10 10
6 6 6 6 6 6 7 7 7 7 8 8 8 8 9 9 9 9 9 9 9 9 9 9 9 9 9 9 10 10 10 10 10 10 10 10 10 10 10 10 10 10 9
5 6 6 6 6 7 7 8 8 8 8 8 7 8 8 8 8 8 8 8 8 8 8 8 8 7 8 7 8 8 9 9 9 9 10 9 10 10 10 10 10 9 8
5 6 5 5 5 6 6 6 6 7 7 7 7 7 7 7 7 7 7 7 7 7 7 7 7 7 7 6 6 7 7 7 8 8 9 9 9 10 10 10 10 8 7
4 4 4 4 4 4 4 4 4 5 6 5 5 5 6 6 6 6 6 6 6 6 6 6 6 6 6 7 7 6 6 6 6 7 7 8 8 9 9 9 9 8 8
4 4 4 3 3 2 2 3 3 4 4 3 3 3 3 4 5 5 5 5 5 5 6 6 5 5 5 5 5 5 5 5 6 6 7 7 8 8 8 8 8 7 8
4 4 3 2 2 2 3 3 3 4 4 3 3 3 3 2 2 2 2 2 2 3 4 4 4 4 4 4 4 4 4 5 5 6 7 7 7 7 8 7 7 7 7
4 3 2 2 2 3 3 3 3 3 3 3 3 3 3 3 3 3 2 1 1 -1 -3 -2 1 3 3 3 2 3 3 4 5 6 5 6 6 6 6 5 6 5 6
3 3 3 3 3 4 4 4 4 4 4 4 3 2 2 2 1 1 1 0 -0 -1 -3 -3 -3 -2 -1 0 1 1 2 2 3 4 6 5 6 5 6 5 4 4 6
5 5 4 4 5 5 5 4 4 4 3 3 3 2 2 1 -0 -1 0 -2 -4 -4 -2 -4 -4 -3 -2 -1 0 0 0 1 2 2 3 4 5 6 5 5 5 4 5
6 6 6 5 3 3 3 3 3 2 1 1 1 1 1 0 -0 -1 -0 -1 -4 -6 -5 -5 -4 -3 -2 -1 -0 1 1 1 1 2 3 3 4 4 5 5 4 5 3
5 4 4 4 3 2 2 1 -1 -3 -4 -5 -4 -5 -6 -4 -5 -7 -7 -7 -6 -5 -6 -5 -5 -4 -4 -3 -1 0 0 0 1 1 3 3 3 3 3 4 4 3 4
4 3 3 2 1 -1 -2 -3 -3 -5 -5 -5 -5 -5 -6 -5 -3 -4 -6 -7 -7 -7 -6 -6 -5 -5 -5 -4 -1 -1 -0 0 0 0 2 3 3 2 2 2 3 3 3
3 2 1 1 -0 -1 -2 -3 -4 -5 -5 -5 -5 -4 -4 -4 -3 -3 -5 -7 -6 -6 -6 -6 -5 -5 -5 -5 -3 -2 -1 0 0 0 1 2 2 1 0 1 1 2 2
2 1 0 -1 -1 -2 -2 -3 -4 -5 -5 -4 -4 -4 -6 -5 -5 -6 -4 -6 -4 -4 -5 -5 -5 -5 -5 -4 -3 -1 -1 -1 -0 0 1 1 1 1 1 1 1 1 1
Height
1457 1461 1463 1466 1467 1469 1471 1471 1471 1472 1472 1473 1473 1474 1473 1474 1473 1477 1481 1483 1488 1490 1490 1500 1502 1507 1511 1513 1517 1519 1522 1525 1528 1531 1532 1533 1534 1534 1534 1535 1535 1536 1537
1452 1453 1454 1458 1461 1462 1462 1463 1464 1465 1466 1467 1467 1466 1464 1461 1458 1463 1468 1474 1479 1484 1484 1493 1498 1504 1505 1509 1512 1516 1517 1519 1524 1526 1528 1529 1531 1530 1530 1531 1531 1532 1532
1446 1446 1447 1452 1455 1456 1456 1456 1457 1459 1461 1462 1462 1459 1456 1453 1450 1455 1458 1464 1470 1477 1479 1488 1494 1498 1503 1505 1506 1511 1512 1515 1519 1520 1524 1525 1523 1525 1527 1525 1527 1528 1529
1441 1442 1445 1450 1450 1451 1450 1449 1451 1453 1455 1458 1456 1452 1448 1444 1445 1449 1454 1461 1465 1471 1477 1482 1486 1493 1500 1501 1503 1507 1509 1512 1515 1517 1519 1520 1520 1521 1522 1521 1522 1523 1525
1437 1440 1443 1445 1445 1446 1448 1447 1446 1448 1450 1452 1450 1450 1441 1437 1443 1447 1452 1456 1462 1467 1472 1479 1482 1489 1493 1496 1499 1501 1502 1506 1509 1511 1513 1515 1517 1518 1518 1516 1517 1518 1519
1434 1438 1442 1442 1444 1445 1444 1441 1440 1441 1445 1448 1449 1447 1445 1434 1440 1445 1451 1457 1462 1467 1472 1475 1480 1484 1487 1491 1493 1496 1496 1498 1504 1505 1508 1510 1511 1513 1512 1512 1511 1512 1514
1436 1440 1441 1441 1443 1442 1439 1432 1432 1437 1443 1446 1445 1444 1442 1435 1440 1447 1453 1456 1461 1465 1467 1473 1478 1480 1482 1487 1488 1490 1491 1494 1497 1499 1500 1504 1506 1508 1508 1507 1506 1506 1508
1441 1440 1440 1440 1441 1439 1434 1426 1432 1434 1442 1443 1442 1441 1442 1445 1448 1451 1455 1456 1458 1463 1466 1471 1474 1477 1479 1480 1483 1485 1486 1488 1491 1492 1492 1496 1498 1500 1500 1499 1500 1500 1500
1444 1447 1446 1443 1445 1443 1433 1425 1428 1431 1436 1440 1442 1444 1445 1447 1449 1451 1456 1457 1458 1461 1465 1467 1469 1471 1473 1475 1478 1479 1480 1481 1482 1484 1486 1488 1489 1490 1491 1491 1492 1492 1491
1448 1447 1449 1452 1452 1448 1441 1438 1439 1440 1440 1442 1443 1444 1446 1449 1451 1453 1456 1458 1459 1461 1462 1465 1465 1468 1469 1470 1472 1472 1471 1471 1473 1475 1476 1477 1480 1480 1481 1480 1480 1481 1482
1458 1457 1456 1455 1455 1453 1451 1449 1447 1447 1447 1448 1447 1445 1444 1448 1450 1452 1454 1455 1456 1457 1458 1460 1460 1460 1461 1462 1463 1463 1463 1462 1463 1464 1464 1464 1467 1467 1469 1469 1469 1471 1473
1465 1463 1462 1459 1456 1455 1453 1452 1452 1451 1451 1451 1451 1449 1450 1450 1451 1451 1452 1452 1451 1452 1450 1451 1451 1452 1450 1452 1451 1451 1451 1450 1448 1452 1453 1453 1455 1456 1458 1455 1460 1461 1463
1467 1465 1463 1461 1459 1458 1457 1455 1452 1451 1450 1451 1451 1451 1450 1449 1449 1450 1449 1447 1447 1448 1446 1446 1444 1444 1445 1443 1442 1441 1440 1441 1442 1443 1442 1443 1444 1445 1447 1448 1449 1452 1453
1470 1468 1465 1463 1461 1458 1454 1453 1453 1452 1452 1452 1451 1450 1450 1449 1449 1448 1446 1445 1444 1444 1441 1439 1438 1437 1436 1434 1434 1432 1432 1432 1431 1432 1432 1434 1434 1434 1436 1438 1442 1444 1442
1470 1468 1466 1464 1463 1462 1460 1458 1455 1454 1452 1451 1450 1448 1447 1446 1445 1443 1443 1442 1440 1438 1435 1433 1432 1431 1429 1427 1426 1424 1424 1424 1423 1423 1421 1421 1426 1427 1427 1428 1431 1437 1437
1471 1470 1468 1468 1466 1463 1461 1459 1457 1453 1451 1449 1448 1446 1444 1443 1440 1438 1436 1434 1431 1429 1427 1425 1422 1419 1418 1418 1418 1418 1417 1416 1414 1413 1414 1413 1416 1418 1419 1422 1424 1427 1432
1473 1471 1470 1468 1466 1463 1460 1456 1454 1451 1448 1446 1443 1441 1439 1435 1432 1433 1434 1431 1426 1422 1419 1416 1414 1412 1411 1411 1410 1411 1407 1407 1406 1405 1404 1406 1406 1409 1413 1414 1418 1420 1424
1473 1471 1469 1467 1464 1460 1457 1454 1452 1449 1447 1445 1443 1439 1436 1433 1430 1426 1424 1420 1417 1415 1412 1409 1406 1403 1402 1401 1399 1399 1398 1396 1395 1395 1395 1397 1398 1401 1405 1406 1407 1414 1417
1471 1469 1466 1463 1461 1459 1457 1456 1452 1450 1448 1444 1441 1439 1436 1432 1428 1424 1420 1415 1410 1408 1404 1401 1399 1396 1391 1390 1386 1388 1387 1384 1384 1386 1387 1388 1391 1391 1396 1399 1401 1405 1411
1466 1465 1464 1462 1460 1458 1456 1454 1451 1449 1445 1443 1441 1438 1433 1429 1425 1421 1417 1412 1407 1401 1397 1390 1389 1386 1383 1380 1377 1378 1377 1373 1372 1374 1377 1380 1383 1386 1388 1394 1397 1405 1404
1464 1463 1463 1461 1458 1456 1455 1453 1451 1447 1445 1443 1441 1436 1432 1428 1423 1418 1411 1407 1400 1394 1387 1385 1382 1379 1375 1368 1368 1370 1366 1365 1366 1365 1366 1369 1374 1377 1380 1385 1391 1395 1399
1464 1461 1460 1460 1460 1456 1453 1450 1449 1447 1444 1442 1438 1433 1429 1423 1417 1411 1407 1401 1394 1389 1384 1378 1371 1368 1366 1361 1361 1359 1358 1358 1357 1357 1359 1361 1365 1369 1373 1377 1383 1388 1394
1460 1459 1458 1457 1456 1454 1453 1452 1449 1445 1441 1436 1431 1426 1421 1416 1411 1406 1401 1395 1390 1384 1378 1372 1365 1359 1356 1354 1353 1350 1349 1349 1347 1349 1351 1354 1357 1361 1365 1368 1373 1381 1385
1459 1458 1457 1457 1455 1453 1451 1448 1444 1440 1435 1431 1426 1421 1417 1412 1407 1401 1395 1390 1385 1379 1373 1365 1358 1353 1349 1345 1344 1342 1340 1339 1339 1341 1343 1346 1351 1354 1358 1362 1365 1371 1377
1456 1455 1454 1452 1450 1448 1446 1443 1438 1434 1430 1428 1423 1418 1413 1407 1401 1396 1390 1385 1379 1375 1367 1360 1352 1345 1339 1337 1336 1333 1332 1332 1333 1335 1336 1340 1343 1348 1351 1355 1359 1364 1369
1451 1450 1449 1447 1446 1443 1441 1438 1434 1431 1425 1420 1417 1413 1408 1403 1398 1391 1382 1381 1375 1367 1360 1352 1345 1336 1331 1327 1325 1323 1324 1325 1327 1327 1329 1334 1336 1339 1343 1347 1352 1357 1363
Wind_Speed
29 23 24 28 24 24 25 26 27 28 26 27 28 31 33 36 41 45 46 40 49 44 34 39 33 34 34 35 33 31 28 26 22 21 21 21 21 23 23 22 20 19 19
27 29 24 22 24 24 23 27 27 27 25 27 29 31 36 39 41 43 50 45 51 48 43 38 36 34 35 36 34 31 29 27 25 26 22 21 25 27 22 23 23 23 21
24 23 18 20 19 25 28 30 28 26 25 27 29 36 35 37 36 39 44 48 44 46 37 38 37 34 35 37 34 32 31 30 28 29 19 9 12 23 28 27 26 25 25
16 12 14 17 16 19 23 22 20 20 24 23 25 27 31 36 36 40 43 41 41 35 32 35 36 32 37 35 32 31 31 31 31 31 31 23 13 15 12 27 29 29 28
6 9 16 13 12 12 15 16 21 24 23 24 23 24 25 35 34 37 37 35 37 37 31 33 31 34 35 34 33 34 34 35 33 35 33 32 31 23 18 17 22 29 30
4 5 7 5 5 4 10 17 24 23 20 18 20 17 3 27 30 31 27 28 29 29 30 30 33 34 35 36 35 36 37 35 33 29 30 27 26 33 32 29 28 25 31
4 3 4 6 3 7 12 9 14 23 17 13 12 13 12 11 11 17 19 24 29 29 28 29 31 32 32 36 37 36 32 34 33 26 26 25 28 30 33 28 28 26 29
19 13 19 12 12 12 19 13 11 17 14 11 10 5 9 9 8 8 8 8 15 19 21 22 24 26 30 27 28 30 32 34 33 31 28 32 38 36 38 33 30 27 29
26 26 27 24 19 13 20 30 21 21 19 9 15 7 6 9 11 5 11 16 13 14 18 19 19 22 21 26 30 28 33 33 33 35 36 40 42 42 38 36 34 34 28
29 29 27 24 23 21 21 23 21 17 13 5 3 1 10 11 2 16 15 13 17 23 24 27 31 35 37 36 38 42 43 37 41 43 39 41 46 48 47 43 38 36 39
23 23 22 22 22 23 23 23 21 18 15 13 11 9 10 9 7 7 15 20 20 20 28 40 39 39 43 43 44 42 40 48 46 45 46 48 45 46 49 51 37 37 37
19 19 18 17 18 19 19 19 18 17 17 14 11 6 3 5 7 8 10 14 18 21 14 23 26 27 32 36 38 44 47 47 41 44 44 45 49 51 47 39 38 41 40
16 17 17 19 19 18 17 17 17 17 15 12 9 6 4 3 6 9 12 14 16 19 21 23 24 27 28 28 31 34 36 39 39 37 42 46 43 42 40 41 38 46 39
16 17 18 18 18 19 19 18 17 17 16 15 15 13 12 11 13 15 16 17 18 20 21 23 25 26 27 28 30 32 33 35 38 40 41 43 43 42 42 39 41 39 32
15 18 18 18 17 17 16 16 16 16 16 17 16 16 16 17 18 19 20 22 23 24 25 26 27 27 28 28 29 29 31 33 35 38 37 38 38 35 34 35 35 37 30
12 15 15 15 15 16 16 17 17 18 19 19 19 20 20 22 23 24 26 27 28 28 29 31 32 31 30 31 29 28 31 32 33 34 34 35 36 36 35 37 33 32 33
8 11 12 12 13 15 18 20 21 22 22 23 27 29 29 31 31 29 26 25 27 29 31 32 32 34 36 35 31 30 28 31 32 33 32 34 33 37 35 32 36 32 30
8 9 9 11 14 18 22 25 26 27 27 27 28 30 31 33 34 34 34 35 35 32 29 29 31 35 35 34 34 32 31 32 33 31 31 32 31 35 37 37 35 34 32
8 8 10 15 19 21 23 24 25 25 25 28 30 31 31 32 34 35 37 38 38 39 36 32 30 29 33 35 33 32 33 33 34 34 31 27 31 29 36 34 36 32 33
7 11 14 17 19 21 24 25 26 26 27 28 30 31 32 34 35 36 36 38 38 39 38 38 33 32 30 29 31 31 31 33 34 34 34 30 27 27 30 33 31 35 35
10 13 15 17 21 22 23 23 24 24 25 26 26 27 29 31 32 35 37 39 38 39 39 39 35 32 30 28 27 30 27 32 33 33 33 32 28 27 29 34 35 35 29
11 15 17 17 18 20 21 22 23 22 23 23 24 25 26 27 30 31 33 35 38 37 36 37 39 31 29 30 27 28 25 26 30 35 32 31 29 29 29 34 33 31 27
14 16 18 20 19 21 21 21 21 20 24 25 28 28 29 30 32 33 33 34 33 32 38 35 39 37 32 28 29 26 28 25 28 32 33 29 27 28 31 36 37 33 30
15 17 18 18 19 18 19 19 22 21 24 26 26 26 28 30 34 36 35 34 36 36 37 39 39 40 39 37 27 26 28 26 25 26 29 28 26 25 27 35 33 36 32
14 16 17 18 19 19 20 19 21 22 24 24 28 29 31 34 36 37 37 37 35 34 39 43 45 46 44 40 34 30 25 31 25 21 31 33 29 24 30 32 34 31 34
14 15 16 17 18 19 20 20 21 22 23 27 28 29 31 34 35 38 42 37 34 36 36 36 37 39 37 35 32 28 30 29 23 22 30 32 35 31 32 31 36 34 35
Wind_Direction
268 263 255 255 253 248 254 263 270 275 264 255 256 265 257 265 270 237 234 241 234 221 213 225 219 215 217 213 211 213 215 222 222 229 232 234 238 232 234 242 239 247 257
268 266 253 247 239 255 266 273 276 269 258 258 264 266 261 274 264 235 226 235 233 225 217 214 216 221 218 213 213 216 219 224 226 224 231 235 234 234 241 233 235 245 257
265 260 233 221 239 261 277 274 270 261 255 258 264 273 266 263 235 223 224 221 230 215 212 207 214 219 220 217 216 219 224 228 222 223 220 213 223 233 236 236 237 245 248
257 226 212 231 259 273 278 260 256 251 249 248 274 270 272 229 224 221 216 219 211 207 211 221 213 221 224 223 222 225 230 232 226 224 223 227 233 222 232 234 235 238 240
247 232 234 253 271 266 268 263 253 245 241 258 275 264 261 216 211 216 215 211 214 212 210 220 225 228 229 231 227 230 227 226 227 226 230 232 236 240 242 241 237 236 237
282 257 241 232 207 254 299 293 257 247 245 255 256 242 257 164 184 196 198 203 205 209 218 222 227 233 230 229 229 233 230 232 234 232 237 248 248 257 251 249 251 257 241
82 103 102 147 208 319 320 315 250 223 214 217 236 222 205 134 154 199 207 206 208 213 217 225 227 230 233 236 236 237 240 241 236 234 236 244 250 257 263 260 252 248 241
73 97 52 54 52 353 6 80 161 191 180 159 146 142 182 170 178 198 196 179 192 203 203 215 220 224 231 231 235 242 243 249 242 246 250 253 255 253 258 253 244 237 235
71 78 77 62 51 31 21 70 81 79 121 113 219 223 285 141 189 187 224 233 229 253 242 235 233 239 248 249 248 249 249 243 247 251 255 256 260 252 248 250 249 246 231
70 68 72 77 74 65 55 59 62 63 72 85 126 253 238 203 185 224 229 259 248 250 242 240 250 257 253 261 264 261 261 257 253 256 256 266 262 256 254 250 247 245 242
76 74 70 67 64 64 62 62 65 69 66 59 53 77 114 179 219 229 237 245 259 264 251 246 255 262 268 255 261 260 266 258 252 257 262 270 261 258 263 252 245 245 238
67 61 54 48 46 44 45 46 49 52 54 53 53 53 4 314 304 293 279 282 275 264 266 257 259 262 255 250 257 262 268 264 255 261 266 269 265 257 263 246 254 244 234
51 42 40 39 35 34 32 29 28 28 22 19 19 16 7 322 289 279 271 269 268 264 258 256 261 265 263 263 263 265 263 260 254 254 262 266 263 261 255 259 254 233 227
39 35 31 26 23 20 17 13 10 8 2 356 354 347 335 321 306 297 295 292 287 282 275 270 268 267 267 264 258 258 261 263 260 258 261 263 259 255 249 249 244 234 219
25 23 19 16 15 15 14 13 10 5 359 353 347 341 333 324 316 308 302 294 287 284 283 281 279 279 278 278 275 274 271 267 262 261 261 259 259 251 245 236 232 224 223
12 12 10 5 6 5 5 2 360 360 356 350 345 341 333 328 324 318 312 309 304 298 292 285 283 280 276 273 273 277 273 276 272 269 266 262 256 251 242 235 230 232 227
358 359 356 355 356 354 358 359 0 359 356 353 351 347 342 337 332 326 318 310 308 305 301 297 293 286 280 277 277 273 266 265 269 267 272 272 263 245 245 234 232 225 226
332 342 355 354 352 354 355 357 354 351 348 345 343 341 339 336 333 329 326 324 321 315 306 300 294 293 289 282 274 270 270 264 260 264 265 267 266 257 245 236 229 221 223
321 341 352 356 353 351 348 346 344 341 337 336 335 333 332 328 325 322 321 321 319 317 315 311 304 291 288 289 286 276 265 264 261 255 260 263 262 259 250 237 228 221 222
342 352 346 344 342 339 336 335 332 329 327 327 328 327 325 324 322 320 318 317 316 313 312 311 309 298 298 299 295 290 268 264 263 256 250 254 261 254 248 232 229 232 224
340 332 327 329 327 324 321 320 321 320 319 317 318 317 318 320 322 319 318 317 319 316 314 310 309 306 304 302 302 291 275 260 261 263 259 247 249 249 242 232 222 229 231
312 311 313 316 322 323 320 319 321 315 313 312 318 320 321 325 325 322 320 318 318 317 313 312 312 310 304 300 298 287 283 270 263 257 259 262 253 245 238 228 228 231 225
315 312 310 314 320 318 318 316 319 312 316 317 320 324 324 329 333 329 321 318 316 312 314 309 309 306 306 296 290 286 286 281 264 256 252 257 261 256 241 231 224 223 221
299 299 303 306 312 318 317 316 324 317 316 317 325 328 329 332 333 333 331 323 321 319 313 307 303 302 302 299 285 284 287 284 271 253 252 251 251 255 248 227 220 220 220
282 290 298 307 315 315 316 318 323 321 320 321 327 331 332 334 332 331 331 328 324 318 307 301 301 300 297 293 292 271 275 279 276 256 244 251 238 231 218 224 218 221 219
282 288 295 302 307 310 314 315 318 322 323 324 330 332 331 332 332 332 330 329 329 332 329 325 307 304 296 292 285 267 260 267 263 257 243 248 236 227 219 222 218 221 221